Location: Bois de la Silve
(44.4667°N, 6.7833°E)
Time: 23:45:53
(UTC+00:00)

SL-16 R/B - Pass Details

Date: 14 July 2020
Orbit: 842 x 846 km, 71.0° (Epoch: 03 August)

Event Time Altitude Azimuth Distance (km) Brightness Sun altitude
Rises 02:03:15 0° 341° (NNW) 3,417 5.9 -16.1°
Reaches altitude 10° 02:06:06 10° 354° (N) 2,478 5.3 -15.8°
Maximum altitude 02:10:53 27° 51° (NE) 1,569 4.4 -15.3°
Drops below altitude 10° 02:15:39 10° 109° (ESE) 2,466 4.9 -14.8°
Sets 02:18:28 0° 121° (ESE) 3,397 5.4 -14.5°
